Tracking 30918 objects as of 2-Jul-2025
HD Live streaming from Space Station
objects crossing your sky now

YAOGAN-36 01A

Track YAOGAN-36 01A now!
10-day predictions


NORAD ID: 53943
Int'l Code: 2022-120A
Perigee: 517.8 km
Apogee: 525.5 km
Inclination: 35.0 °
Period: 94.9 minutes
Semi major axis: 6892 km
RCS: Unknown
Launch date: September 26, 2022
Source: People's Republic of China (PRC)
Launch site: Xichang Space Center, China (XSC)
Your satellite tracking list
Your tracking list is empty




NASA's NSSDC Master Catalog

Two Line Element Set (TLE):
1 53943U 22120A   25182.76563087  .00006080  00000-0  30086-3 0  9995
2 53943  34.9933 320.0826 0005587  75.2307 284.9024 15.17140239153941
Source of the keplerian elements: AFSPC